FW3611 Weather Reports


Display with metric or nautical units.
time (UTC)temp
F
wind
direction
speed
MPH
gust
MPH
rain 1hr
in
rain 24hr
in
rain mn
in
humidity
%
barometer
mb
20260905022743 80 117 0.0 0.0 0.00 0.00 0.00 94 1016.0
20260905022239 80 117 0.0 0.0 0.00 0.00 0.00 94 1016.0
20260905021734 80 117 0.0 0.0 0.00 0.00 0.00 94 1016.0
20260905021235 80 117 0.0 0.0 0.00 0.00 0.00 94 1016.0
20260905020233 79 117 0.0 0.0 0.00 0.00 0.00 93 1016.0
20260905015731 80 117 0.0 0.0 0.00 0.00 0.00 94 1016.1
20260905015230 80 117 0.0 0.0 0.00 0.00 0.00 94 1016.0
20260905014733 80 117 0.0 0.0 0.00 0.00 0.00 94 1015.9
20260905014231 80 117 0.0 0.0 0.00 0.00 0.00 93 1015.9
20260905013732 79 117 0.0 0.0 0.00 0.00 0.00 93 1015.8
20260905013238 79 117 0.0 0.0 0.00 0.00 0.00 93 1015.8
20260905012747 79 117 0.0 0.0 0.00 0.00 0.00 93 1015.8
20260905012236 79 117 0.0 0.0 0.00 0.00 0.00 93 1015.6
20260905011733 79 117 0.0 0.0 0.00 0.00 0.00 93 1015.6
20260905011232 80 117 0.0 0.0 0.00 0.00 0.00 92 1015.5
20260905010721 80 117 0.0 0.0 0.00 0.00 0.00 92 1015.4
20260905010222 80 117 0.0 0.0 0.00 0.00 0.00 92 1015.3
20260905005717 80 117 0.0 0.0 0.00 0.00 0.00 92 1015.2
20260905005218 80 117 0.0 0.0 0.00 0.00 0.00 92 1015.2
20260905004715 80 117 0.0 0.0 0.00 0.00 0.00 92 1015.4
20260905003714 80 117 0.0 0.0 0.00 0.00 0.00 92 1015.2
20260905002211 80 117 0.0 1.0 0.00 0.00 0.00 92 1015.4
20260905000704 81 117 0.0 1.0 0.00 0.00 0.00 91 1015.1
20260905000215 81 117 1.0 2.0 0.00 0.00 0.00 91 1015.3
20260904235713 81 117 1.0 2.0 0.00 0.00 0.00 91 1015.3
20260904235224 81 117 1.0 3.0 0.00 0.00 0.00 91 1015.1
20260904234204 81 117 1.0 3.0 0.00 0.00 0.00 90 1015.1
20260904233659 81 117 1.0 3.0 0.00 0.00 0.00 90 1015.3
20260904233200 81 117 1.0 3.0 0.00 0.00 0.00 90 1015.2
20260904232710 81 117 1.0 3.0 0.00 0.00 0.00 90 1015.3
20260904232209 81 117 1.0 2.0 0.00 0.00 0.00 90 1015.1
20260904231701 81 117 1.0 4.0 0.00 0.00 0.00 89 1015.2
20260904231159 81 117 1.0 4.0 0.00 0.00 0.00 89 1015.1
20260904230710 82 117 1.0 3.0 0.00 0.00 0.00 89 1015.1
20260904230158 82 117 1.0 3.0 0.00 0.00 0.00 89 1015.0
20260904225657 82 117 1.0 3.0 0.00 0.00 0.00 89 1015.1
20260904225158 81 115 1.0 3.0 0.00 0.00 0.00 89 1015.2
20260904224701 81 115 1.0 3.0 0.00 0.00 0.00 88 1015.1
20260904224206 81 108 1.0 3.0 0.00 0.00 0.00 88 1015.1
20260904223154 82 158 1.0 4.0 0.00 0.00 0.00 88 1015.0
20260904222655 82 158 1.0 4.0 0.00 0.00 0.00 87 1014.9
20260904221654 82 162 1.0 4.0 0.00 0.00 0.00 87 1015.1
20260904221153 82 162 1.0 4.0 0.00 0.00 0.00 87 1015.1
20260904220650 82 162 1.0 4.0 0.00 0.00 0.00 87 1015.1
20260904220148 82 162 1.0 5.0 0.00 0.00 0.00 87 1015.0
20260904215645 82 162 2.0 5.0 0.00 0.00 0.00 87 1015.1
20260904215145 81 162 2.0 5.0 0.00 0.00 0.00 86 1015.1
20260904214144 81 135 2.0 4.0 0.00 0.00 0.00 86 1015.3
20260904213651 81 135 2.0 4.0 0.00 0.00 0.00 86 1015.5
20260904213146 81 130 1.0 3.0 0.00 0.00 0.00 86 1015.5
20260904212144 81 130 1.0 4.0 0.00 0.00 0.00 85 1015.2
20260904211713 81 129 1.0 4.0 0.00 0.00 0.00 86 1015.2
20260904211208 81 124 1.0 4.0 0.00 0.00 0.00 85 1015.1
20260904210640 81 124 2.0 5.0 0.00 0.00 0.00 85 1015.1
20260904210141 81 141 2.0 5.0 0.00 0.00 0.00 86 1015.0
20260904205642 82 146 2.0 6.0 0.00 0.00 0.00 86 1014.9
20260904205141 82 146 2.0 6.0 0.00 0.00 0.00 86 1014.9
20260904203642 82 178 2.0 7.0 0.00 0.00 0.00 85 1015.1
20260904203135 82 103 1.0 6.0 0.00 0.00 0.00 85 1015.1
20260904202635 82 141 1.0 6.0 0.00 0.00 0.00 86 1015.1
20260904202136 82 112 1.0 6.0 0.00 0.00 0.00 86 1015.2
20260904201633 82 221 2.0 7.0 0.00 0.00 0.00 87 1015.3
20260904201134 81 92 3.0 10.0 0.00 0.00 0.00 87 1015.5
20260904200632 81 123 4.0 10.0 0.00 0.00 0.00 86 1015.4
20260904200129 82 125 3.0 9.0 0.00 0.00 0.00 85 1015.5
20260904195630 82 139 3.0 8.0 0.00 0.00 0.00 85 1015.5
20260904195132 83 186 4.0 11.0 0.00 0.00 0.00 84 1015.6
20260904194629 84 130 5.0 16.0 0.00 0.00 0.00 82 1015.6
20260904194130 85 161 4.0 16.0 0.00 0.00 0.00 81 1015.6
20260904193629 86 100 3.0 10.0 0.00 0.00 0.00 80 1015.4
20260904193129 87 120 3.0 10.0 0.00 0.00 0.00 77 1015.3
20260904192628 88 126 2.0 4.0 0.00 0.00 0.00 75 1015.1
20260904192129 88 129 2.0 7.0 0.00 0.00 0.00 71 1015.0
20260904191630 89 127 1.0 7.0 0.00 0.00 0.00 72 1015.1
20260904191130 89 112 1.0 4.0 0.00 0.00 0.00 72 1015.2
20260904190628 89 112 1.0 4.0 0.00 0.00 0.00 72 1015.2
20260904190128 89 112 1.0 4.0 0.00 0.00 0.00 71 1015.2
20260904185629 89 111 2.0 4.0 0.00 0.00 0.00 71 1015.2
20260904185129 89 106 1.0 4.0 0.00 0.00 0.00 72 1015.3
20260904184129 89 65 3.0 5.0 0.00 0.00 0.00 72 1015.3
20260904183630 89 64 3.0 5.0 0.00 0.00 0.00 69 1015.4
20260904183132 89 65 4.0 8.0 0.00 0.00 0.00 71 1015.4
20260904182633 89 63 4.0 8.0 0.00 0.00 0.00 71 1015.4
20260904182133 89 69 3.0 9.0 0.00 0.00 0.00 71 1015.5
20260904181135 90 141 1.0 5.0 0.00 0.00 0.00 70 1015.6
20260904180633 90 141 1.0 4.0 0.00 0.00 0.00 69 1015.5
20260904180135 89 141 2.0 6.0 0.00 0.00 0.00 69 1015.7
20260904175626 89 141 2.0 5.0 0.00 0.00 0.00 69 1015.7
20260904175127 89 152 2.0 5.0 0.00 0.00 0.00 68 1015.7
20260904174630 90 167 2.0 7.0 0.00 0.00 0.00 69 1015.8
20260904173627 90 152 2.0 5.0 0.00 0.00 0.00 65 1015.9
20260904173124 91 174 2.0 7.0 0.00 0.00 0.00 64 1016.0
20260904172623 91 161 2.0 7.0 0.00 0.00 0.00 65 1016.1
20260904171625 90 89 2.0 6.0 0.00 0.00 0.00 67 1016.2
20260904171126 91 94 2.0 5.0 0.00 0.00 0.00 69 1016.2
20260904170624 90 139 2.0 5.0 0.00 0.00 0.00 67 1016.2
20260904165112 90 83 3.0 6.0 0.00 0.00 0.00 68 1016.4
20260904164613 89 37 2.0 6.0 0.00 0.00 0.00 69 1016.6
20260904163606 89 184 3.0 7.0 0.00 0.00 0.00 73 1016.8
20260904163112 89 188 4.0 12.0 0.00 0.00 0.00 71 1016.8
20260904162610 88 187 4.0 12.0 0.00 0.00 0.00 71 1016.8
20260904161612 88 189 3.0 6.0 0.00 0.00 0.00 73 1017.1
20260904161112 88 117 2.0 4.0 0.00 0.00 0.00 73 1017.2
20260904160608 87 116 2.0 7.0 0.00 0.00 0.00 76 1017.2
20260904160110 88 114 2.0 10.0 0.00 0.00 0.00 73 1017.1
20260904155107 88 73 3.0 9.0 0.00 0.00 0.00 75 1017.2
20260904154603 87 159 2.0 6.0 0.00 0.00 0.00 73 1017.2
20260904153604 88 107 2.0 4.0 0.00 0.00 0.00 73 1017.3
20260904153102 88 105 2.0 7.0 0.00 0.00 0.00 77 1017.2
20260904152104 87 147 2.0 5.0 0.00 0.00 0.00 73 1017.2
20260904151602 87 56 2.0 5.0 0.00 0.00 0.00 76 1017.2
20260904151102 86 41 3.0 6.0 0.00 0.00 0.00 77 1017.1
20260904150113 86 220 2.0 4.0 0.00 0.00 0.00 77 1017.1
20260904145608 85 208 2.0 5.0 0.00 0.00 0.00 78 1017.1
20260904145102 85 208 2.0 5.0 0.00 0.00 0.00 79 1017.2
20260904144602 85 89 2.0 6.0 0.00 0.00 0.00 79 1017.2
20260904144101 85 87 2.0 6.0 0.00 0.00 0.00 81 1017.1
20260904143603 85 87 2.0 7.0 0.00 0.00 0.00 80 1017.0
20260904142100 83 181 3.0 9.0 0.00 0.00 0.00 85 1017.2
20260904141601 82 184 2.0 9.0 0.00 0.00 0.00 90 1017.0
20260904141100 80 175 2.0 6.0 0.00 0.00 0.00 94 1017.0
20260904140600 80 158 2.0 4.0 0.00 0.00 0.00 95 1017.0
20260904135601 79 341 1.0 4.0 0.00 0.00 0.00 96 1017.1
20260904135055 79 341 1.0 4.0 0.00 0.00 0.00 96 1017.0
20260904134550 79 130 1.0 4.0 0.00 0.00 0.00 96 1017.0
20260904134039 79 127 2.0 4.0 0.00 0.00 0.00 96 1017.0
20260904133033 79 127 1.0 3.0 0.00 0.00 0.00 96 1017.1
20260904132029 78 127 1.0 2.0 0.00 0.00 0.00 96 1016.8
20260904131529 78 127 0.0 2.0 0.00 0.00 0.00 96 1017.0
20260904131029 78 127 0.0 2.0 0.00 0.00 0.00 96 1016.9
20260904130526 78 127 1.0 2.0 0.00 0.00 0.00 96 1016.8
20260904130027 78 127 1.0 3.0 0.00 0.00 0.00 96 1016.9
20260904125522 78 127 1.0 3.0 0.00 0.00 0.00 96 1016.9
20260904124528 78 127 1.0 3.0 0.00 0.00 0.00 96 1017.0
20260904124020 78 127 1.0 3.0 0.00 0.00 0.00 96 1016.9
20260904123520 78 127 1.0 2.0 0.00 0.00 0.00 96 1016.8
20260904123020 78 127 1.0 2.0 0.00 0.00 0.00 96 1016.9
20260904122016 77 127 1.0 3.0 0.00 0.00 0.00 96 1016.8
20260904121514 77 127 0.0 0.0 0.00 0.00 0.00 96 1017.0
20260904121012 77 127 0.0 0.0 0.00 0.00 0.00 96 1016.8
20260904120510 77 127 0.0 0.0 0.00 0.00 0.00 96 1016.8
20260904120010 77 127 0.0 0.0 0.00 0.00 0.00 96 1016.7
20260904115513 77 127 0.0 0.0 0.00 0.00 0.00 96 1016.7
20260904115012 77 127 0.0 0.0 0.00 0.00 0.00 96 1016.6
20260904113502 77 127 0.0 0.0 0.00 0.00 0.00 96 1016.4
20260904113007 77 127 0.0 0.0 0.00 0.00 0.00 96 1016.3
20260904112504 76 127 0.0 0.0 0.00 0.00 0.00 96 1016.3
20260904112001 76 127 0.0 0.0 0.00 0.00 0.00 96 1016.2
20260904111503 76 127 0.0 0.0 0.00 0.00 0.00 96 1016.2
20260904111002 76 127 0.0 0.0 0.00 0.00 0.00 96 1016.0
20260904110503 76 127 0.0 0.0 0.00 0.00 0.00 96 1016.0
20260904105512 76 127 0.0 0.0 0.00 0.00 0.00 96 1016.0
20260904105008 76 127 0.0 0.0 0.00 0.00 0.00 96 1016.0
20260904104504 77 127 0.0 0.0 0.00 0.00 0.00 96 1016.0
20260904104002 77 127 0.0 1.0 0.00 0.00 0.00 96 1016.0
20260904103003 77 127 0.0 2.0 0.00 0.00 0.00 96 1015.9
20260904101500 77 127 0.0 1.0 0.00 0.00 0.00 96 1015.8
20260904101005 77 127 0.0 1.0 0.00 0.00 0.00 96 1015.8
20260904100458 77 127 0.0 2.0 0.00 0.00 0.00 96 1015.8
20260904095958 77 127 0.0 2.0 0.00 0.00 0.00 95 1015.7
20260904095504 77 127 0.0 2.0 0.00 0.00 0.00 95 1015.7
20260904094959 77 127 0.0 2.0 0.00 0.00 0.00 95 1015.8
20260904094500 77 127 0.0 2.0 0.00 0.00 0.00 95 1015.9
20260904093955 77 127 1.0 2.0 0.00 0.00 0.00 95 1015.8
20260904092955 77 127 1.0 2.0 0.00 0.00 0.00 95 1015.7
20260904092456 77 127 1.0 2.0 0.00 0.00 0.00 95 1015.7
20260904091955 77 127 1.0 3.0 0.00 0.00 0.00 95 1015.7
20260904091451 77 127 1.0 3.0 0.00 0.00 0.00 95 1015.7
20260904085951 77 127 1.0 3.0 0.00 0.00 0.00 95 1015.6
20260904085449 77 127 0.0 2.0 0.00 0.00 0.00 95 1015.6
20260904084948 77 127 0.0 2.0 0.00 0.00 0.00 95 1015.6
20260904084447 77 127 0.0 0.0 0.00 0.00 0.00 95 1015.6
20260904083949 77 127 0.0 2.0 0.00 0.00 0.00 95 1015.5
20260904083449 77 127 1.0 3.0 0.00 0.00 0.00 95 1015.4
20260904082949 77 127 0.0 3.0 0.00 0.00 0.00 95 1015.4
20260904082449 77 127 0.0 0.0 0.00 0.00 0.00 95 1015.4
20260904081948 77 127 0.0 0.0 0.00 0.00 0.00 95 1015.6
20260904080949 77 127 0.0 0.0 0.00 0.00 0.00 95 1015.6
20260904080450 77 127 0.0 0.0 0.00 0.00 0.00 95 1015.6
20260904075950 77 127 0.0 0.0 0.00 0.00 0.00 95 1015.6
20260904075448 77 127 0.0 0.0 0.00 0.00 0.00 95 1015.6
20260904074944 77 127 0.0 0.0 0.00 0.00 0.00 95 1015.6
20260904073944 77 127 0.0 0.0 0.00 0.00 0.00 94 1015.6
20260904072941 77 127 0.0 0.0 0.00 0.00 0.00 94 1015.7
20260904072443 77 127 0.0 0.0 0.00 0.00 0.00 94 1015.7
20260904071945 77 127 0.0 0.0 0.00 0.00 0.00 94 1015.6
20260904071443 77 127 0.0 0.0 0.00 0.00 0.00 94 1015.6
20260904070947 77 127 0.0 0.0 0.00 0.00 0.00 94 1015.5
20260904065945 77 127 0.0 0.0 0.00 0.00 0.00 94 1015.5
20260904065439 77 127 0.0 0.0 0.00 0.00 0.00 94 1015.5
20260904064432 77 127 0.0 0.0 0.00 0.00 0.00 94 1015.4
20260904063935 77 127 0.0 0.0 0.00 0.00 0.00 94 1015.5
20260904063435 78 127 0.0 0.0 0.00 0.00 0.00 94 1015.5
20260904062930 78 127 0.0 0.0 0.00 0.00 0.00 94 1015.6
20260904062430 78 127 0.0 0.0 0.00 0.00 0.00 94 1015.6
20260904061930 78 127 0.0 0.0 0.00 0.00 0.00 94 1015.7
20260904061430 78 127 0.0 0.0 0.00 0.00 0.00 94 1015.6
20260904060929 78 127 0.0 0.0 0.00 0.00 0.00 94 1015.6
20260904055426 78 127 1.0 2.0 0.00 0.00 0.00 93 1015.8
20260904054918 78 127 0.0 0.0 0.00 0.00 0.00 94 1015.9
20260904054415 78 127 0.0 0.0 0.00 0.00 0.00 93 1015.9
20260904053914 78 127 0.0 1.0 0.00 0.00 0.00 93 1015.9
20260904053413 78 127 0.0 1.0 0.00 0.00 0.00 93 1015.9
20260904052913 78 127 0.0 2.0 0.00 0.00 0.00 93 1016.0
20260904051912 78 127 1.0 2.0 0.00 0.00 0.00 93 1016.1
20260904051410 78 127 0.0 2.0 0.00 0.00 0.00 93 1016.1
20260904050909 78 127 0.0 2.0 0.00 0.00 0.00 93 1016.1
20260904050405 78 127 1.0 2.0 0.00 0.00 0.00 93 1016.2
20260904045907 79 127 1.0 4.0 0.00 0.00 0.00 93 1016.2
20260904044907 79 127 1.0 3.0 0.00 0.00 0.00 93 1016.3
20260904044408 79 127 1.0 2.0 0.00 0.00 0.00 93 1016.3
20260904043906 79 127 1.0 3.0 0.00 0.00 0.00 93 1016.3
20260904043406 79 127 1.0 3.0 0.00 0.00 0.00 92 1016.3
20260904042857 79 127 0.0 2.0 0.00 0.00 0.00 92 1016.2
20260904042358 79 127 0.0 2.0 0.00 0.00 0.00 92 1016.3
20260904041857 79 127 0.0 2.0 0.00 0.00 0.00 92 1016.4
20260904041355 79 127 0.0 2.0 0.00 0.00 0.00 92 1016.3
20260904040350 79 127 0.0 2.0 0.00 0.00 0.00 92 1016.2
20260904035847 79 127 1.0 2.0 0.00 0.00 0.00 92 1016.2
20260904035349 79 127 1.0 3.0 0.00 0.00 0.00 92 1016.3
20260904034848 79 127 2.0 5.0 0.00 0.00 0.00 92 1016.3
20260904034347 80 127 2.0 5.0 0.00 0.00 0.00 92 1016.3
20260904032845 80 130 1.0 4.0 0.00 0.00 0.00 92 1016.2
20260904032344 80 130 2.0 4.0 0.00 0.00 0.00 92 1016.2
20260904031843 80 130 2.0 4.0 0.00 0.00 0.00 92 1016.3
20260904031344 80 130 2.0 4.0 0.00 0.00 0.00 91 1016.5
20260904030344 80 130 2.0 4.0 0.00 0.00 0.00 91 1016.5
20260904025845 80 130 1.0 3.0 0.00 0.00 0.00 91 1016.6
20260904025346 80 130 1.0 3.0 0.00 0.00 0.00 91 1016.6
20260904024839 80 130 1.0 3.0 0.00 0.00 0.00 91 1016.6
20260904024341 80 130 2.0 3.0 0.00 0.00 0.00 91 1016.6
20260904023841 80 130 2.0 4.0 0.00 0.00 0.00 90 1016.6
20260904023342 80 130 1.0 4.0 0.00 0.00 0.00 90 1016.6
20260904022845 80 130 1.0 2.0 0.00 0.00 0.00 90 1016.6